EHI
0 0 0 0 0 0 0 0 0 0 0 0 0 0 0 0 0 0 0 0 0 0 0 1 16 50 79 83 78 74 54 29 19 12 3 0 0 0 0 0 0 0 0 0
0 0 0 0 0 0 0 0 0 0 0 0 0 0 0 0 0 0 0 0 0 0 0 5 25 59 83 88 86 82 67 47 37 25 8 0 0 0 0 0 0 0 0 0
0 0 0 0 0 0 0 0 0 0 0 0 0 0 0 0 0 0 0 0 0 1 6 23 50 70 81 86 90 88 78 65 55 42 20 5 1 0 0 0 0 0 0 0
0 0 0 0 0 0 0 0 0 0 0 0 0 0 0 0 0 0 0 0 0 2 17 49 75 79 72 73 82 86 77 60 50 44 28 10 2 0 0 0 0 0 0 0
0 0 0 0 0 0 0 0 0 0 0 0 0 0 0 0 0 0 0 0 0 2 18 51 75 74 64 61 67 74 67 46 35 31 21 9 2 0 0 0 0 0 0 0
0 0 0 0 0 0 0 0 0 0 0 0 0 0 0 0 0 0 0 0 0 1 9 31 54 58 58 63 58 53 47 33 21 14 7 2 0 0 0 0 0 0 0 0
0 0 0 0 0 0 0 0 0 0 0 0 0 0 0 0 0 0 0 0 0 0 3 17 30 36 50 65 55 31 20 15 9 5 2 0 0 0 0 0 0 0 0 0
0 0 0 0 0 0 0 0 0 0 0 0 0 0 0 0 0 0 0 0 0 0 2 7 11 14 28 45 38 16 5 4 3 3 1 0 0 0 0 0 0 0 0 0
0 0 0 0 0 0 0 0 0 0 0 0 0 0 0 0 0 0 0 0 0 0 0 1 1 1 7 14 12 6 3 2 0 1 0 0 0 0 0 0 0 0 0 0
0 0 0 0 0 0 0 0 0 0 0 0 0 0 0 0 0 0 0 0 0 0 0 0 0 0 0 0 0 1 2 1 0 0 0 0 0 0 0 0 0 0 0 0
0 0 0 0 0 0 0 0 0 0 0 0 0 0 0 0 0 0 0 0 0 0 0 0 0 0 0 0 0 0 1 0 0 0 0 0 0 0 0 0 0 0 0 0
0 0 0 0 0 0 0 0 0 0 0 0 0 0 0 0 0 0 0 0 0 0 0 0 0 0 0 0 0 0 0 0 0 0 0 0 0 0 0 0 0 0 0 0
0 0 0 0 0 0 0 0 0 0 0 0 0 0 0 0 0 0 0 0 0 0 0 0 0 0 0 0 0 0 0 0 0 0 0 0 0 0 0 0 0 0 0 0
0 0 0 0 0 0 0 0 0 0 0 0 0 0 0 0 0 0 0 0 0 0 0 0 0 0 0 0 0 1 1 1 0 0 0 0 0 0 0 0 0 0 0 0
0 0 0 0 0 0 0 0 0 0 0 0 0 0 0 0 0 0 0 0 0 0 0 0 0 0 0 0 0 1 1 1 0 0 0 0 0 0 0 0 0 0 0 0
0 0 0 0 0 0 0 0 0 0 0 0 0 0 0 0 0 0 0 0 0 0 0 0 0 0 0 0 0 0 0 0 0 0 0 0 0 0 0 0 0 0 0 0
0 0 0 0 0 0 0 0 0 0 0 0 0 0 0 0 0 0 0 0 0 0 0 0 0 0 0 0 0 0 0 0 0 0 0 0 0 0 0 0 0 0 0 0
0 0 0 0 0 0 0 0 0 0 0 0 0 0 0 0 0 0 0 0 0 0 0 0 0 0 0 0 0 0 0 0 0 0 0 0 0 0 0 0 0 0 0 0
0 0 0 0 0 0 0 0 0 0 0 0 0 0 0 0 0 0 0 0 0 0 0 0 0 0 0 0 0 0 0 0 0 0 0 0 0 0 0 0 0 0 0 0
0 0 0 0 0 0 0 0 0 0 0 0 0 0 0 0 0 0 0 0 0 0 0 0 0 0 0 0 0 0 0 0 0 0 0 0 0 0 0 0 0 0 0 0
0 0 0 0 0 0 0 0 0 0 0 0 0 0 0 0 0 0 0 0 0 0 0 0 0 0 0 0 0 0 0 0 0 0 0 0 0 0 0 0 0 0 0 0
0 0 0 0 0 0 0 0 0 0 0 0 0 0 0 0 0 0 0 0 0 0 0 0 0 0 0 0 0 0 0 0 0 0 0 0 0 0 0 0 0 0 0 0
0 0 0 0 0 0 0 0 0 0 0 0 0 0 0 0 0 0 0 0 0 0 0 0 0 0 0 0 0 0 0 0 0 0 0 0 0 0 0 0 0 0 0 0
0 0 0 0 0 0 0 0 0 0 0 0 0 0 0 0 0 0 0 0 0 0 0 0 0 0 0 0 0 0 0 0 0 0 0 0 0 0 0 0 0 0 0 0
0 0 0 0 0 0 0 0 0 0 0 0 0 0 0 0 0 0 0 0 0 0 0 0 0 0 0 0 0 0 0 0 0 0 0 0 0 0 0 0 0 0 0 0
0 0 0 0 0 0 0 0 0 0 0 0 0 0 0 0 0 0 0 0 0 0 0 0 0 0 0 0 0 0 0 0 0 0 0 0 0 0 0 0 0 0 0 0
Wind_Speed
1 1 1 4 4 5 5 4 5 4 4 4 6 8 11 7 4 6 6 4 1 7 13 7 15 18 16 14 14 12 14 12 10 6 5 4 4 4 3 4 5 5 5 3
2 2 4 5 4 4 3 1 4 3 2 3 5 10 12 8 6 5 7 8 10 13 12 7 12 17 18 16 14 14 15 12 10 7 5 4 3 2 2 2 3 4 4 4
3 5 6 6 4 3 4 4 4 4 2 2 4 7 6 6 6 5 4 6 10 14 14 9 10 15 19 19 17 15 13 11 10 8 5 4 4 3 2 1 2 3 4 4
3 2 5 4 4 5 4 4 3 2 3 2 3 6 6 3 3 3 4 7 9 8 3 5 4 5 9 14 16 15 12 10 9 9 7 6 4 4 4 3 3 3 4 5
4 5 5 2 2 4 2 7 6 4 3 2 1 2 7 6 5 6 9 10 7 7 3 5 6 5 4 3 5 11 11 9 8 8 8 6 4 3 2 2 3 4 4 4
3 4 3 2 2 6 9 6 5 3 3 2 3 3 6 14 17 17 12 9 11 10 8 10 6 1 5 6 5 4 9 7 7 7 6 6 6 5 3 3 3 2 2 2
6 5 5 10 10 3 3 3 3 4 1 3 2 3 8 15 19 19 20 16 12 4 3 8 11 2 1 5 1 4 6 5 6 7 6 6 6 6 6 6 5 4 3 3
3 7 6 11 5 5 4 5 5 4 3 3 1 2 7 11 16 18 17 18 22 20 18 13 5 9 8 8 3 4 5 5 6 6 5 5 5 4 4 5 5 5 4 4
5 6 11 11 6 9 5 2 2 3 0 1 4 6 2 14 19 23 19 19 16 12 12 13 15 10 10 16 13 7 8 6 5 5 4 4 4 5 4 3 4 3 3 3
2 7 6 7 10 11 6 4 2 1 5 4 0 1 4 11 15 20 19 13 11 7 7 9 8 9 13 0 5 4 4 5 5 3 3 4 4 6 5 4 5 5 5 4
2 2 6 7 4 6 7 5 2 2 2 4 3 0 3 8 13 18 19 13 13 12 5 3 3 6 8 5 1 5 7 7 5 5 4 3 4 6 5 3 4 5 5 5
4 3 3 2 2 1 5 1 2 2 1 1 3 4 1 5 8 14 18 17 18 18 12 7 5 11 9 7 6 7 5 4 5 5 4 4 4 3 4 5 4 5 6 6
5 4 5 7 6 4 7 12 4 3 2 1 3 2 6 10 11 11 13 13 13 15 14 11 8 11 13 12 5 3 4 6 4 3 3 4 4 5 4 4 3 4 5 6
7 3 1 1 4 3 5 13 10 4 3 5 5 6 14 18 21 21 18 14 14 14 10 13 9 10 11 12 8 4 4 3 2 3 2 3 4 4 2 3 6 5 5 6
4 1 2 7 10 14 14 17 18 14 10 6 5 5 10 14 16 17 17 13 14 17 10 6 1 1 2 3 3 4 2 1 3 3 7 7 5 5 7 7 8 7 10 8
4 3 3 8 7 12 16 19 19 15 12 10 9 5 13 15 15 17 17 14 11 10 11 13 14 15 13 12 12 13 9 6 6 6 9 11 12 12 12 9 8 7 9 9
4 2 3 3 2 4 9 12 13 12 13 10 9 11 16 18 17 17 16 15 11 8 11 14 13 13 10 10 12 10 8 7 6 5 1 4 6 4 5 3 5 6 6 2
2 3 2 3 4 5 3 5 5 7 8 10 10 11 13 15 15 7 11 13 12 10 10 10 8 9 8 6 7 9 5 4 6 7 7 7 7 5 1 1 1 2 2 2
4 2 3 3 4 2 4 7 7 6 4 9 11 15 16 17 11 6 18 19 11 7 6 5 5 6 6 6 7 7 6 7 7 7 7 7 7 6 5 5 5 4 3 3
6 6 5 3 3 1 3 5 3 0 2 9 10 12 14 14 10 11 18 18 10 3 3 5 5 5 6 5 6 7 7 7 6 6 5 5 5 6 6 6 5 4 4 4
7 7 6 4 2 1 3 5 1 1 5 10 9 10 9 5 6 14 17 15 8 1 2 4 4 4 3 3 6 6 7 6 5 5 5 5 4 4 4 4 5 5 6 6
1 2 3 3 2 2 2 3 1 3 4 6 6 7 8 10 11 11 12 11 8 2 2 3 4 3 3 3 4 5 5 4 4 5 5 4 4 5 4 5 5 5 5 5
1 2 2 1 2 3 1 1 3 3 4 5 5 8 7 9 11 13 12 12 8 2 2 2 2 3 4 3 2 3 3 2 4 4 4 4 4 5 5 5 5 4 5 4
2 2 2 1 2 1 3 3 3 4 6 9 9 8 7 7 10 12 12 10 8 4 3 1 1 3 4 4 2 2 1 2 3 3 2 3 3 3 3 3 3 3 3 3
5 2 2 1 2 1 5 3 4 6 7 8 8 6 7 6 8 8 9 9 8 6 4 2 2 3 4 4 3 2 1 3 3 2 0 1 1 2 2 2 2 2 2 3
6 6 5 5 6 4 4 4 5 4 5 6 5 6 6 5 7 7 8 7 6 6 4 3 4 4 3 2 2 3 1 3 4 2 0 1 2 3 3 2 1 2 1 3
Wind_Direction
253 59 260 223 187 174 164 218 256 246 203 234 244 257 270 268 287 297 286 266 5 357 330 267 176 175 172 169 171 161 163 168 154 137 136 160 158 158 174 197 194 181 170 162
352 275 211 170 164 150 161 214 271 270 186 263 273 267 266 261 247 240 294 331 336 330 318 265 173 170 170 168 167 163 169 165 160 154 148 151 142 157 158 177 178 170 165 169
205 245 187 182 191 187 204 199 214 237 335 356 320 284 268 258 233 210 237 288 275 268 247 211 174 173 173 168 170 167 165 158 155 140 122 95 89 77 70 110 176 180 195 203
323 275 201 218 231 180 243 210 126 76 36 331 14 299 294 295 287 257 240 242 245 286 227 174 154 157 198 180 160 154 149 150 152 144 145 154 158 160 176 175 190 213 209 209
308 311 298 248 259 158 150 100 105 111 96 318 273 254 295 2 331 288 253 233 227 224 176 104 63 38 10 11 115 134 135 144 145 146 151 148 139 142 149 154 187 230 224 222
295 317 354 19 17 119 126 100 65 56 71 295 240 213 360 8 357 340 312 266 246 225 202 142 120 226 216 134 120 146 125 128 126 131 141 144 151 153 151 166 185 214 230 239
328 334 355 26 0 18 92 106 38 348 313 236 283 95 59 9 2 356 359 349 342 306 268 122 121 104 330 62 75 134 113 137 145 148 157 162 168 170 178 186 177 187 192 215
335 317 352 350 341 276 263 149 168 212 236 291 316 94 87 1 345 354 9 23 34 20 19 18 20 166 189 130 207 163 148 191 166 165 179 182 174 177 185 190 176 195 198 205
340 297 330 341 6 30 339 82 143 159 105 34 356 31 24 3 354 350 358 14 20 22 30 16 13 348 183 168 189 180 166 189 186 184 195 225 199 180 170 180 177 188 188 189
348 305 330 355 19 19 358 6 9 194 168 176 136 51 283 346 347 341 340 348 342 329 33 20 24 341 310 341 128 130 152 202 198 193 226 234 195 177 165 168 171 179 175 169
28 349 324 16 32 328 3 30 355 158 141 153 147 110 354 328 337 341 328 338 334 322 16 3 309 285 277 322 143 165 204 201 184 186 203 192 150 162 171 186 176 173 170 179
354 47 346 322 235 163 93 70 1 69 341 279 135 147 93 333 3 347 332 346 351 335 305 260 252 269 267 238 201 196 212 223 203 184 173 179 171 186 203 210 196 181 187 192
348 34 3 342 340 2 24 344 293 218 186 176 97 348 5 3 357 343 333 344 348 325 290 258 249 263 281 293 299 228 202 226 216 156 168 195 201 197 215 242 237 205 196 202
38 54 91 313 317 56 31 359 23 128 138 89 70 4 358 355 347 340 345 341 337 326 277 235 228 247 253 273 278 209 222 233 169 157 199 41 359 324 317 306 289 279 238 209
47 339 54 70 77 70 37 18 21 40 46 58 37 30 352 347 342 338 335 339 358 352 4 32 49 302 341 282 235 159 196 341 82 108 88 71 5 351 44 344 311 339 316 272
359 337 52 113 108 77 47 20 13 20 31 30 18 358 349 343 347 346 352 8 12 352 16 36 40 51 48 51 50 47 30 32 65 124 172 175 200 182 166 191 208 200 245 267
330 352 23 349 329 134 26 5 7 360 24 15 9 346 346 337 341 341 347 5 13 11 25 40 42 50 45 55 73 61 21 8 46 61 58 229 245 167 199 223 256 258 265 263
335 10 45 355 3 43 325 295 327 336 24 11 343 343 340 330 318 311 2 359 358 15 34 39 45 55 50 39 58 68 40 22 46 48 47 43 53 69 77 244 280 319 306 247
20 59 61 65 48 11 325 335 339 334 17 1 340 336 343 340 334 355 1 351 338 352 11 24 41 56 55 45 48 60 51 42 41 38 37 35 45 51 44 34 18 13 11 356
10 42 56 48 69 23 298 322 351 221 340 345 338 330 341 349 11 340 333 330 327 2 23 39 43 48 51 41 49 51 41 41 37 39 50 46 47 43 34 26 17 11 20 26
353 11 31 31 60 282 300 309 312 354 314 324 321 317 328 341 303 299 313 324 326 345 59 64 62 59 52 50 57 48 37 27 19 41 68 53 51 56 42 28 20 21 28 34
17 14 354 13 16 311 312 347 22 268 293 298 302 294 304 312 309 313 320 329 331 354 34 50 42 21 14 29 49 39 26 6 43 63 69 52 37 32 33 47 38 35 40 42
183 195 193 203 243 248 77 214 274 278 284 282 286 290 292 307 316 323 331 338 340 316 327 28 15 332 340 349 8 8 338 6 61 68 62 42 46 44 39 47 38 31 29 31
269 198 157 150 266 245 186 238 279 282 285 293 295 294 296 302 311 320 335 338 336 317 307 6 347 307 333 332 304 282 330 61 73 69 71 40 30 27 31 35 42 40 19 2
219 198 170 158 259 200 198 247 269 282 288 288 297 291 291 300 306 312 324 328 334 323 303 303 261 291 319 339 311 294 62 76 90 82 19 333 347 327 348 18 22 22 6 353
199 182 167 195 194 174 242 274 277 280 298 310 314 317 319 306 310 324 324 317 323 329 316 289 272 275 292 321 287 266 206 126 125 136 209 304 328 326 318 309 326 61 16 6